Regional Weather Roundup
Issued by NWS Columbia, SC

Home | Current Version | Previous Version | Text Only | Print | Product List | Glossary On
Versions: 1 2 3 4 5 6 7 8 9 10 11 12 13 14 15 16 17 18 19 20 21 22 23 24 25 26 27 28 29 30 31 32 33 34 35 36 37 38 39 40 41 42 43 44 45 46 47 48 49 50
000
ASUS42 KCAE 290010
RWRCAE
REGIONAL WEATHER ROUNDUP
NATIONAL WEATHER SERVICE COLUMBIA SC
800 PM EDT TUE JUL 28 2015

NOTE: "FAIR" INDICATES FEW OR NO CLOUDS BELOW 12,000 FEET WITH NO
SIGNIFICANT WEATHER AND/OR OBSTRUCTIONS TO VISIBILITY.

NOT ALL STATIONS ARE QUALITY CONTROLLED BY THE NATIONAL
WEATHER SERVICE. USE DATA WITH CAUTION...ESPECIALLY
DEWPOINT OBSERVATIONS.

SCZ001>056-GAZ040-063>065-077-290100-
...UPSTATE SOUTH CAROLINA...

CITY           SKY/WX    TMP DP  RH WIND       PRES   REMARKS
ANDERSON       MOCLDY    86  73  65 N3        29.97R
6HR MIN TEMP:  86; 6HR MAX TEMP:  93;

SPARTANBURG      N/A     81  73  78 SE5       29.98S
CLEMSON        MOCLDY    87  71  58 N3        29.99R
6HR MIN TEMP:  83; 6HR MAX TEMP:  93;

GREENVILLE     MOCLDY    85  74  69 E9        29.99R
6HR MIN TEMP:  72; 6HR MAX TEMP:  91; 6HR PCP:  1.29;

GREENWOOD      TSTM      75  73  93 VRB6      30.00S FOG
6HR MIN TEMP:  75; 6HR MAX TEMP:  96; 6HR PCP:  0.51;

GREER          CLOUDY    81  73  76 SE8       29.98R
6HR MIN TEMP:  74; 6HR MAX TEMP:  92; 6HR PCP:  0.18;

ROCK HILL      MOCLDY    77  72  84 SW5       29.98S
6HR MIN TEMP:  73; 6HR MAX TEMP:  93; 6HR PCP:  0.40;

LAURENS        MOCLDY    79  77  94 W6        30.00R THUNDER


...CENTRAL SOUTH CAROLINA...

CITY           SKY/WX    TMP DP  RH WIND       PRES   REMARKS
COLUMBIA APT   CLOUDY    86  71  60 N8        29.94S
6HR MIN TEMP:  86; 6HR MAX TEMP:  97;

COLUMBIA OWENS CLOUDY    82  75  79 CALM      29.96R
6HR MIN TEMP:  77; 6HR MAX TEMP:  94; 6HR PCP:  0.37;

DARLINGTON     MOCLDY    88  68  51 SE5       29.95F
6HR MIN TEMP:  88; 6HR MAX TEMP:  95;

FLORENCE       MOCLDY    89  68  49 SE7       29.95R
6HR MIN TEMP:  89; 6HR MAX TEMP:  95;

MCENTIRE ANGB  MOCLDY    81  75  84 CALM      29.95S
6HR MIN TEMP:  81; 6HR MAX TEMP:  91; 6HR PCP:  0.02;

ORANGEBURG     CLOUDY    87  72  60 CALM      29.95R
6HR MIN TEMP:  87; 6HR MAX TEMP:  96;

SUMTER SHAW    MOCLDY    85  72  65 CALM      29.93R
6HR MIN TEMP:  85; 6HR MAX TEMP:  97;

NEWBERRY       CLOUDY    73  70  88 S3        30.01R
AIKEN          DRIZZLE   84  66  54 CALM      30.00R
BARNWELL       FAIR      84  79  84 NE5       29.95R HX  96
MANNING        FAIR      82  66  57 CALM      29.96R
CAMDEN         FAIR      82  73  74 NW5       29.96S
LANCASTER      MOCLDY    77  72  83 SW3       29.97S
WINNSBORO      LGT RAIN  73  73 100 SE3       29.97F


...EASTERN AND COASTAL SOUTH CAROLINA...

CITY           SKY/WX    TMP DP  RH WIND       PRES   REMARKS
MYRTLE BEACH   CLEAR     82  70  65 E12       29.97F
N MYRTLE BCH   CLEAR     83  72  69 E12       29.95S
6HR MIN TEMP:  83; 6HR MAX TEMP:  87;

CONWAY         FAIR      81  70  69 SE3       29.96R
MARION         FAIR     N/A N/A N/A S8        29.95R
HARTSVILLE     FAIR      86  68  54 CALM      29.94F
FLORENCE       MOCLDY    89  68  49 SE7       29.95R
6HR MIN TEMP:  89; 6HR MAX TEMP:  95;

DARLINGTON     MOCLDY    88  68  51 SE5       29.95F
6HR MIN TEMP:  88; 6HR MAX TEMP:  95;

CHARLESTON APT PTCLDY    83  71  67 SE9       29.95R
6HR MIN TEMP:  83; 6HR MAX TEMP:  90;

MOUNT PLEASANT FAIR      82  73  74 E3        29.96R
WALTERBORO     MOCLDY    88  72  58 SE7       29.95R
BEAUFORT       PTCLDY    84  75  74 SE7       29.95R
6HR MIN TEMP:  84; 6HR MAX TEMP:  92;



...EASTERN GEORGIA...

CITY           SKY/WX    TMP DP  RH WIND       PRES   REMARKS
AUGUSTA BUSH F CLOUDY    88  73  61 E6        29.93R HX  95
6HR MIN TEMP:  88; 6HR MAX TEMP:  96;

AUGUSTA DANIEL CLOUDY    91  69  48 E9        29.95R HX  96
6HR MIN TEMP:  91; 6HR MAX TEMP:  96;

THOMSON        MOCLDY    81  80  98 CALM      29.99S
6HR MIN TEMP:  79; 6HR MAX TEMP: 100;

WASHINGTON     FAIR      90  75  62 CALM      29.95R HX 100
CLAXTON        FAIR      86  73  66 CALM      29.94R
SYLVANIA       MOCLDY    89  78  70 SE3       29.94S HX 103
6HR MIN TEMP:  89; 6HR MAX TEMP:  97;

STATESBORO     MOCLDY    88  78  71 CALM      29.93S HX 102
6HR MIN TEMP:  88; 6HR MAX TEMP:  96;

SAVANNAH       MOCLDY    84  73  69 SE10      29.95R
6HR MIN TEMP:  84; 6HR MAX TEMP:  92;



...SOUTHERN NORTH CAROLINA...

CITY           SKY/WX    TMP DP  RH WIND       PRES   REMARKS
CHARLOTTE      MOCLDY    78  71  79 CALM      29.98F
6HR MIN TEMP:  77; 6HR MAX TEMP:  92; 6HR PCP:  0.04;

MONROE         MOCLDY    80  70  71 W5        29.97F
6HR MIN TEMP:  79; 6HR MAX TEMP:  87; 6HR PCP: TRACE;

WADESBORO      CLOUDY    84  73  69 CALM      29.96R
6HR MIN TEMP:  84; 6HR MAX TEMP:  91;

ROCKINGHAM     MOCLDY    85  73  67 CALM      29.96S
6HR MIN TEMP:  84; 6HR MAX TEMP:  92;

RUTHERFORDTON  PTCLDY    79  74  86 E6        30.00R
6HR MIN TEMP:  76; 6HR MAX TEMP:  91; 6HR PCP:  0.10;

ASHEVILLE      MOCLDY    79  68  69 S6        30.06R
6HR MIN TEMP:  79; 6HR MAX TEMP:  90;


$$


USA.gov is the U.S. government's official web portal to all federal, state and local government web resources and services.